Terminal Aerodrome Forecast
Issued by NWS Spokane, WA

Home | Current Version | Previous Version | Text Only | Print | Product List | Glossary On
Versions: 1 2 3 4 5 6 7 8 9 10 11 12 13 14 15 16 17 18 19 20 21 22 23 24 25 26 27 28 29 30 31 32 33 34 35 36 37 38 39 40 41 42 43 44 45 46 47 48 49 50
000
FTUS46 KOTX 210823 AAA
TAFEAT
TAF AMD
KEAT 210823Z 2108/2206 29006KT 3SM BR SCT001 BKN150
      TEMPO 2108/2111 1/4SM FZFG VV001
     FM211200 30005KT P6SM BKN008 OVC100
     FM211600 29004KT P6SM VCSH SCT008 OVC050
      TEMPO 2116/2119 6SM -SN OVC025
     FM211900 30004KT P6SM BKN025 OVC040
     FM220300 30012KT P6SM SCT150=

USA.gov is the U.S. government's official web portal to all federal, state and local government web resources and services.